Weather in Tagan

Russia / Novosibirsk Oblast     54°57′20″N   77°17′29″E
temp.,
°C
wind,
m/s
gust,
m/s
humid.,
%
clouds,
%
prec.,
mm/h
press.,
hPa
HPBL,
m
5 december, sun
sun501:00−4sw51197100 0.1 1027242
04:00−2ssw61196100 0.1 1026415
07:00−3ssw6129465 0.1 1024299
10:00−3ssw6149575 0.0 1023304
13:00−2ssw7149599 0.0 1022330
16:00−2ssw61393100 0.0 1020289
19:00−3ssw6149286 0.0 1020259
22:00−3sw6149080 0.0 1019247
6 december, mon
mon601:00−4sw6148968 0.0 1019266
04:00−4sw5129128 0.0 1018220
07:00−6sw41094100 0.0 1018159
10:00−6sw489499 0.0 1018133
13:00−5sw3793100 0.0 1017159
16:00−5ssw3694100 0.0 1016126
19:00−6sw4993100 0.0 1015157
22:00−4sw51192100 0.0 1013296
7 december, tue
tue701:00−4sw61295100 0.1 1012423
04:00−4w6129589 0.5 1013432
07:00−7wnw71293100 0.6 1016436
10:00−13wnw6129387 0.0 1021329
13:00−15wnw6119355 0.1 1026359
16:00−17wnw59925 0.0 1029279
19:00−21w48985 0.0 1032117
22:00−22wnw35986 0.0 103474
8 december, wed
wed801:00−23w34999 0.0 103653
04:00−23wsw3510065 0.0 103665
07:00−23wsw379964 0.0 103687
10:00−23wsw359964 0.0 103670
13:00−19wsw36989 0.0 1037128
16:00−18wsw36979 0.0 1036124
19:00−22w3410055 0.0 103851
22:00−23wnw3410038 0.0 103949
9 december, thu
thu901:00−23wnw349935 0.0 104048
04:00−24w2210045 0.0 104137
07:00−23w349950 0.0 104263
10:00−23wsw3510058 0.0 104365
13:00−19sw369666 0.0 1043123
16:00−18ssw47945 0.0 1042147
19:00−17ssw499173 0.0 1041154
22:00−14ssw51088100 0.0 1040214